[[{"header":{"parameterUnit":"m.s-1","parameterCategory":1,"la1":30.2991,"la2":30.254,"lo1":-89.0895,"lo2":-89.0444,"dy":0.0017,"dx":0.0017,"nx":28,"ny":28,"refTime":"2024-06-30T21:00:00:Z","depth":0,"parameterNumber":2,"parameterNumberName":"U-component_of_WINDS"},"data":[0,0,0,0,0,0,0,0,0,0,0,0,0,0,0,0,0,0,0,0,0,0,0,0,0,0,0,0,0,0,0,0,0,0,0,0,0,0,0,0,0,0,0,0,0,0,0,0,0,0,0,0,0,0,0,0,0,0,1.5681,1.5683,0,1.5844,1.5846,1.5848,1.5874,1.5873,1.5872,1.587,1.6039,1.6045,1.605,0,0,0,0,0,0,0,0,0,0,0,0,0,1.5396,1.5401,1.5681,1.5683,1.5685,1.5844,1.5846,1.5848,1.5875,1.5873,1.5871,1.587,1.6037,1.6044,1.6051,0,0,0,0,0,0,0,0,0,0,0,0,0,1.5535,1.5403,1.5681,1.5718,1.5722,1.5843,1.5846,1.5849,1.5875,1.5873,1.5871,1.5869,1.6035,1.6043,1.6052,1.6148,0,0,1.6078,1.6082,0,0,0,0,0,0,0,0,1.5527,1.5546,1.571,1.5715,1.5721,1.5837,1.5807,1.5949,1.5875,1.5817,1.587,1.5868,1.5974,1.5987,1.6022,1.6156,1.6163,1.6079,1.6085,1.6088,1.6091,0,0,0,0,0,0,0,1.5518,1.5539,1.5746,1.5712,1.5719,1.5727,1.5744,1.5834,1.5905,1.5822,1.5824,1.5843,1.5976,1.6014,1.6027,1.6166,1.6079,1.6087,1.6092,1.6096,1.6387,1.639,0,0,0,0,0,0,1.5501,1.5531,1.5741,1.5751,1.5617,1.5733,1.5753,1.5802,1.5904,1.5918,1.5845,1.5844,1.6,1.6016,1.6033,1.6152,1.6088,1.6096,1.6101,1.6385,1.6388,1.6391,0,0,0,0,0,0,1.5495,1.552,1.5734,1.5641,1.5669,1.5741,1.5795,1.5806,1.5844,1.5922,1.5935,1.587,1.5999,1.602,1.6119,1.6159,1.61,1.6108,1.6382,1.6386,1.6389,1.6392,0,0,0,0,0,0,1.5487,1.5517,1.5554,1.5642,1.5674,1.5817,1.5798,1.5811,1.5859,1.5859,1.5949,1.5962,1.5999,1.6106,1.6128,1.6169,1.6115,1.6379,1.6384,1.6388,1.6389,1.6396,1.6401,0,0,0,0,0,1.5476,1.5549,1.5556,1.5581,1.5721,1.5819,1.5838,1.5878,1.5862,1.5899,1.5949,1.5959,1.6151,1.6116,1.6141,1.6186,1.6376,1.6382,1.6388,1.6386,1.6394,1.6401,0,0,0,0,0,0,1.5464,1.5561,1.557,1.5672,1.5737,1.5823,1.5872,1.5886,1.5957,1.5955,1.6003,1.6023,1.6119,1.6163,1.6122,1.6285,1.6262,1.6273,1.6253,1.6261,1.6267,1.6255,1.6122,0,0,0,0,0,1.5473,1.5543,1.5625,1.5708,1.574,1.58,1.5845,1.587,1.594,1.5968,1.6025,1.6093,1.6168,1.6217,1.6291,1.6396,1.6416,1.6439,1.6445,1.645,1.6458,1.6517,1.6529,1.6409,1.6409,1.6409,0,0,1.5492,1.5554,1.5596,1.5707,1.576,1.5833,1.5823,1.5901,1.5956,1.598,1.6076,1.6121,1.62,1.6302,1.635,1.6341,1.6496,1.6457,1.646,1.6467,1.6524,1.6536,1.6546,1.6413,1.6413,1.6412,0,0,1.5565,1.5619,1.5694,1.5748,1.5828,1.5868,1.5886,1.5971,1.6001,1.6099,1.6119,1.6185,1.6314,1.637,1.6415,1.651,1.6521,1.6533,1.6565,1.6622,1.6631,1.664,1.6674,1.6685,1.6541,1.6541,1.6541,0,1.558,1.5689,1.5731,1.5808,1.5856,1.5881,1.5958,1.6008,1.6109,1.6142,1.6131,1.6294,1.6349,1.6464,1.6487,1.6523,1.6546,1.6522,1.6626,1.6635,1.6644,1.6677,1.669,1.6542,1.6542,1.6542,1.6542,0,1.5703,1.5779,1.583,1.5927,1.5981,1.6057,1.6111,1.6161,1.6183,1.6224,1.6324,1.639,1.6478,1.6508,1.653,1.6627,1.6619,1.6616,1.6595,1.6656,1.6687,1.67,1.6543,1.6543,1.6543,1.6542,0,0,1.5772,1.5891,1.5909,1.5953,1.6044,1.6104,1.6182,1.6268,1.631,1.6379,1.6446,1.6555,1.6553,1.6604,1.6633,1.6683,1.6754,1.6674,1.6677,1.6687,1.6866,1.6867,1.6881,1.6762,1.6765,1.6767,1.6859,0,1.5856,1.5995,1.6035,1.6152,1.6223,1.6248,1.6316,1.638,1.6421,1.6488,1.6534,1.661,1.6602,1.6633,1.6684,1.6734,1.679,1.6728,1.6826,1.6829,1.6804,1.6897,1.6899,1.6982,1.6872,1.6874,1.6875,0,1.5972,1.6042,1.6166,1.6249,1.628,1.6341,1.6422,1.6486,1.6559,1.6586,1.6643,1.6667,1.6751,1.6725,1.6841,1.6797,1.684,1.6871,1.6875,1.6886,1.6855,1.691,1.701,1.7023,1.6895,1.6894,1.6892,0,1.6009,1.6136,1.6227,1.6264,1.6362,1.6404,1.6447,1.6518,1.6567,1.6639,1.6672,1.6753,1.6797,1.6859,1.6905,1.6882,1.7017,1.6995,1.7042,1.7041,1.7069,1.7067,1.7177,1.7097,1.7096,1.7096,1.7096,0,1.6099,1.6173,1.6245,1.63,1.6386,1.6431,1.6515,1.6559,1.6622,1.6688,1.6715,1.6776,1.6833,1.6902,1.6938,1.7029,1.7049,1.7073,1.7082,1.7071,1.7067,1.7099,1.7094,1.71,1.7099,1.7098,1.7098,0,1.6155,1.6206,1.6306,1.6391,1.6414,1.6473,1.6547,1.6602,1.6644,1.6727,1.6749,1.6816,1.6898,1.695,1.7055,1.708,1.7179,1.7186,1.7154,1.7158,1.7202,1.7197,1.7337,1.7357,1.7263,1.7264,1.7264,0,1.6208,1.6266,1.6358,1.6403,1.6446,1.6519,1.6569,1.6617,1.6668,1.6756,1.6802,1.6886,1.6956,1.7087,1.7145,1.7226,1.7235,1.7278,1.7247,1.7234,1.7236,1.7231,1.7238,1.7283,1.7284,1.7285,1.7285,0,1.6297,1.632,1.639,1.647,1.6529,1.6594,1.6659,1.6695,1.6754,1.6811,1.6895,1.6949,1.7057,1.714,1.7226,1.7272,1.7289,1.7294,1.731,1.7298,1.7277,1.7289,1.7168,1.7291,1.729,1.729,1.729,1.7289,1.6354,1.6407,1.6479,1.6557,1.6611,1.6672,1.6728,1.6777,1.6848,1.6939,1.6963,1.7052,1.7124,1.7242,1.7289,1.736,1.7354,1.7376,1.7381,1.7386,1.7386,1.7266,1.7376,1.7375,1.7375,1.7375,1.7375,0,1.6444,1.6492,1.6564,1.6654,1.6715,1.6725,1.6798,1.6849,1.6926,1.6993,1.7061,1.7158,1.7239,1.7304,1.7388,1.7432,1.7442,1.7453,1.745,1.746,1.7387,1.7365,1.7443,1.7443,1.7443,1.7443,1.7443,1.7443,1.6499,1.6589,1.662,1.6737,1.6785,1.6871,1.6912,1.6969,1.7022,1.7129,1.7196,1.7238,1.7304,1.7393,1.7468,1.7485,1.7515,1.7524,1.7542,1.7473,1.7465,1.7458,1.7438,1.753,1.753,1.761,1.7611,1.7611]},{"header":{"parameterUnit":"m.s-1","parameterCategory":1,"la1":30.2991,"la2":30.254,"lo1":-89.0895,"lo2":-89.0444,"dy":0.0017,"dx":0.0017,"nx":28,"ny":28,"refTime":"2024-06-30T21:00:00:Z","depth":0,"parameterNumber":3,"parameterNumberName":"V-component_of_WINDS"},"data":[0,0,0,0,0,0,0,0,0,0,0,0,0,0,0,0,0,0,0,0,0,0,0,0,0,0,0,0,0,0,0,0,0,0,0,0,0,0,0,0,0,0,0,0,0,0,0,0,0,0,0,0,0,0,0,0,0,0,2.3923,2.3923,0,2.39,2.39,2.3899,2.3814,2.3812,2.381,2.3808,2.3786,2.3787,2.3788,0,0,0,0,0,0,0,0,0,0,0,0,0,2.3895,2.3896,2.3923,2.3923,2.3923,2.39,2.39,2.3899,2.3814,2.3812,2.3809,2.3807,2.3785,2.3787,2.3788,0,0,0,0,0,0,0,0,0,0,0,0,0,2.3893,2.3897,2.3923,2.3877,2.3873,2.39,2.39,2.3899,2.3815,2.3812,2.3809,2.3806,2.3785,2.3787,2.3789,2.3859,0,0,2.3794,2.3795,0,0,0,0,0,0,0,0,2.3894,2.3895,2.3885,2.3881,2.3876,2.3857,2.3881,2.3886,2.3815,2.3837,2.3808,2.3805,2.3812,2.3811,2.3813,2.3858,2.3857,2.3794,2.3796,2.3796,2.3797,0,0,0,0,0,0,0,2.3894,2.3895,2.3914,2.3884,2.3879,2.3858,2.3855,2.3882,2.3841,2.3835,2.3828,2.3827,2.3809,2.3812,2.3812,2.3856,2.3794,2.3796,2.3797,2.3798,2.3956,2.3959,0,0,0,0,0,0,2.39,2.3896,2.3915,2.3913,2.3878,2.3861,2.3857,2.3866,2.3841,2.3834,2.3829,2.3823,2.381,2.381,2.3811,2.3891,2.3796,2.3798,2.3799,2.3953,2.3956,2.396,0,0,0,0,0,0,2.39,2.3903,2.3916,2.3903,2.3903,2.3865,2.3875,2.3867,2.387,2.3836,2.3829,2.384,2.3808,2.3809,2.3847,2.3889,2.3799,2.3801,2.3949,2.3954,2.3958,2.4052,0,0,0,0,0,0,2.39,2.3903,2.3929,2.3904,2.3904,2.3952,2.3878,2.3869,2.3873,2.3864,2.3844,2.3838,2.3806,2.3845,2.3849,2.389,2.3802,2.3945,2.3951,2.3957,2.4045,2.4059,2.4071,0,0,0,0,0,2.3899,2.3957,2.3931,2.3934,2.3936,2.3955,2.3955,2.3916,2.3877,2.3903,2.3881,2.3839,2.3884,2.385,2.3853,2.3896,2.3942,2.3949,2.3956,2.4039,2.4056,2.4071,0,0,0,0,0,0,2.3989,2.3953,2.3924,2.3976,2.3969,2.394,2.3972,2.3935,2.394,2.3932,2.3884,2.388,2.3925,2.3914,2.3877,2.3962,2.3906,2.3914,2.3967,2.3983,2.3996,2.3998,2.3804,0,0,0,0,0,2.4015,2.4033,2.4001,2.405,2.4048,2.4011,2.4017,2.3988,2.3979,2.3976,2.3957,2.3951,2.3963,2.3973,2.3982,2.4042,2.4037,2.4073,2.4087,2.4098,2.4105,2.4136,2.4151,2.3983,2.3983,2.3982,0,0,2.4069,2.4052,2.4066,2.4067,2.4059,2.4079,2.4009,2.4033,2.4047,2.398,2.4015,2.4001,2.3991,2.404,2.4061,2.4032,2.4151,2.4106,2.4115,2.4117,2.4144,2.416,2.4175,2.3987,2.3986,2.3986,0,0,2.4177,2.4166,2.4205,2.4197,2.4185,2.4159,2.4169,2.4146,2.4133,2.4168,2.4117,2.4134,2.4156,2.4151,2.4151,2.4256,2.4218,2.4261,2.433,2.436,2.4374,2.4385,2.4423,2.4437,2.4269,2.4269,2.4269,0,2.4246,2.4274,2.423,2.4257,2.4259,2.4198,2.4237,2.4232,2.4223,2.4226,2.4194,2.4221,2.4209,2.4256,2.4282,2.4284,2.4294,2.4263,2.4375,2.4386,2.4397,2.4432,2.4446,2.4274,2.4274,2.4273,2.4273,0,2.4359,2.4379,2.4412,2.4404,2.441,2.4443,2.4404,2.4415,2.4385,2.4363,2.4399,2.4383,2.4388,2.4397,2.4368,2.444,2.4423,2.4384,2.4327,2.4419,2.4451,2.4464,2.4282,2.428,2.4278,2.4277,0,0,2.4524,2.4491,2.4504,2.4499,2.448,2.4495,2.4525,2.4529,2.454,2.4536,2.456,2.458,2.4544,2.4544,2.4514,2.4541,2.4625,2.4498,2.4497,2.4522,2.4703,2.4732,2.4749,2.4599,2.4601,2.4603,2.4704,0,2.4627,2.4676,2.4637,2.4694,2.4711,2.4653,2.4679,2.4671,2.4651,2.4663,2.4642,2.4657,2.4608,2.4607,2.4631,2.461,2.466,2.4602,2.4621,2.4623,2.4626,2.4765,2.4797,2.4893,2.4716,2.4718,2.472,0,2.4754,2.4754,2.4813,2.4789,2.4795,2.4819,2.4819,2.4832,2.4821,2.4804,2.4805,2.4767,2.4795,2.474,2.4778,2.4739,2.4745,2.4735,2.4738,2.4739,2.4677,2.477,2.4922,2.4937,2.4739,2.4738,2.4736,0,2.4868,2.4884,2.492,2.4918,2.4891,2.491,2.49,2.4885,2.489,2.4891,2.4893,2.4898,2.49,2.4905,2.4869,2.4832,2.4913,2.4854,2.49,2.4901,2.492,2.492,2.5076,2.4924,2.4924,2.4923,2.4923,0,2.4987,2.5025,2.4971,2.4994,2.5034,2.4989,2.503,2.5014,2.5002,2.5021,2.4971,2.4989,2.4941,2.4955,2.4928,2.4964,2.4965,2.4953,2.4946,2.4958,2.496,2.4961,2.4954,2.4927,2.4926,2.4926,2.4925,0,2.5123,2.5088,2.5124,2.5095,2.5088,2.512,2.5095,2.5115,2.5092,2.5116,2.5119,2.5083,2.5096,2.5061,2.507,2.5052,2.5103,2.5085,2.5107,2.5101,2.515,2.5146,2.5313,2.5333,2.5168,2.517,2.5171,0,2.5201,2.5228,2.5202,2.521,2.5202,2.5217,2.5221,2.5177,2.5184,2.5173,2.5194,2.5203,2.5208,2.5233,2.5208,2.5214,2.5196,2.5254,2.5196,2.5208,2.5197,2.5196,2.5198,2.5266,2.5268,2.527,2.5271,0,2.5343,2.5324,2.5332,2.5334,2.534,2.5339,2.5335,2.5345,2.5298,2.5308,2.5321,2.5325,2.5333,2.5343,2.5344,2.5333,2.5295,2.5289,2.53,2.5313,2.5325,2.5319,2.5139,2.5285,2.5284,2.5283,2.5282,2.5282,2.5452,2.5473,2.5458,2.5468,2.546,2.5457,2.5474,2.5452,2.5462,2.5464,2.5438,2.5457,2.5444,2.5441,2.5435,2.5449,2.5423,2.5439,2.5443,2.5448,2.5456,2.5322,2.5449,2.5449,2.5448,2.5448,2.5447,0,2.5592,2.5579,2.5588,2.5583,2.5591,2.5553,2.5546,2.5556,2.5572,2.5564,2.5569,2.5584,2.5593,2.5568,2.5574,2.559,2.5572,2.5593,2.5592,2.559,2.5479,2.5469,2.5607,2.5607,2.5607,2.5607,2.5607,2.5607,2.5666,2.5699,2.5679,2.5708,2.5695,2.5712,2.5711,2.5708,2.5701,2.5719,2.5726,2.571,2.5695,2.5699,2.5706,2.5698,2.5703,2.573,2.5716,2.5613,2.5598,2.5583,2.5573,2.5731,2.5731,2.5826,2.5826,2.5827]}]]